| time (UTC) | temp F | wind direction | speed MPH | gust MPH | rain 1hr in | rain 24hr in | rain mn in | humidity % | barometer mb |
| 20260507060233 | 51 | 327 | 4.0 | 13.0 | 0.00 | 0.00 | 0.00 | 91 | 1005.0 |
| 20260507055730 | 51 | 329 | 3.0 | 10.0 | 0.00 | 0.00 | 0.00 | 90 | 1004.9 |
| 20260507055225 | 51 | 278 | 5.0 | 7.0 | 0.00 | 0.00 | 0.00 | 90 | 1005.0 |
| 20260507054721 | 51 | 293 | 4.0 | 6.0 | 0.00 | 0.00 | 0.00 | 91 | 1005.2 |
| 20260507054219 | 51 | 29 | 3.0 | 6.0 | 0.00 | 0.00 | 0.00 | 91 | 1005.3 |
| 20260507053716 | 51 | 340 | 1.0 | 5.0 | 0.00 | 0.00 | 0.00 | 92 | 1005.3 |
| 20260507053214 | 51 | 359 | 2.0 | 4.0 | 0.00 | 0.00 | 0.00 | 93 | 1005.2 |
| 20260507052713 | 51 | 298 | 0.0 | 4.0 | 0.00 | 0.00 | 0.00 | 94 | 1005.1 |
| 20260507052208 | 51 | 7 | 3.0 | 4.0 | 0.00 | 0.00 | 0.00 | 94 | 1005.3 |
| 20260507051706 | 51 | 53 | 2.0 | 3.0 | 0.00 | 0.00 | 0.00 | 95 | 1005.4 |
| 20260507051203 | 51 | 22 | 0.0 | 4.0 | 0.00 | 0.00 | 0.00 | 95 | 1005.2 |
| 20260507050659 | 52 | 64 | 2.0 | 3.0 | 0.00 | 0.00 | 0.00 | 95 | 1005.0 |
| 20260507050156 | 52 | 8 | 0.0 | 2.0 | 0.00 | 0.00 | 0.00 | 95 | 1005.0 |
| 20260507045653 | 52 | 283 | 2.0 | 5.0 | 0.00 | 0.00 | 0.00 | 95 | 1004.8 |
| 20260507045149 | 52 | 273 | 7.0 | 10.0 | 0.00 | 0.00 | 0.00 | 95 | 1004.9 |
| 20260507044646 | 52 | 267 | 3.0 | 5.0 | 0.00 | 0.00 | 0.00 | 96 | 1004.9 |
| 20260507044143 | 52 | 324 | 2.0 | 6.0 | 0.00 | 0.00 | 0.00 | 95 | 1004.9 |
| 20260507043639 | 52 | 245 | 3.0 | 6.0 | 0.00 | 0.00 | 0.00 | 95 | 1005.1 |
| 20260507043136 | 52 | 291 | 4.0 | 6.0 | 0.00 | 0.00 | 0.00 | 95 | 1005.0 |
| 20260507042633 | 52 | 277 | 3.0 | 4.0 | 0.00 | 0.00 | 0.00 | 95 | 1005.1 |
| 20260507042127 | 52 | 6 | 0.0 | 5.0 | 0.00 | 0.00 | 0.00 | 95 | 1005.3 |
| 20260507041625 | 53 | 0 | 2.0 | 6.0 | 0.00 | 0.00 | 0.00 | 94 | 1005.5 |
| 20260507041122 | 53 | 288 | 3.0 | 14.0 | 0.00 | 0.00 | 0.00 | 94 | 1005.3 |
| 20260507040619 | 53 | 278 | 4.0 | 7.0 | 0.00 | 0.00 | 0.00 | 94 | 1005.1 |
| 20260507040115 | 53 | 266 | 5.0 | 5.0 | 0.00 | 0.00 | 0.00 | 94 | 1005.0 |
| 20260507035610 | 53 | 306 | 2.0 | 8.0 | 0.00 | 0.26 | 0.26 | 94 | 1004.8 |
| 20260507035101 | 54 | 324 | 3.0 | 5.0 | 0.00 | 0.26 | 0.26 | 96 | 1004.6 |
| 20260507034558 | 54 | 318 | 4.0 | 11.0 | 0.00 | 0.26 | 0.26 | 97 | 1004.7 |
| 20260507034056 | 54 | 0 | 3.0 | 5.0 | 0.00 | 0.26 | 0.26 | 98 | 1004.6 |
| 20260507033554 | 55 | 307 | 5.0 | 8.0 | 0.00 | 0.26 | 0.26 | 98 | 1004.5 |
| 20260507033051 | 55 | 71 | 2.0 | 9.0 | 0.00 | 0.26 | 0.26 | 99 | 1004.5 |
| 20260507032548 | 56 | 31 | 5.0 | 8.0 | 0.00 | 0.26 | 0.26 | 99 | 1004.2 |
| 20260507032044 | 57 | 343 | 1.0 | 8.0 | 0.00 | 0.26 | 0.26 | 99 | 1003.9 |
| 20260507031541 | 58 | 31 | 3.0 | 8.0 | 0.00 | 0.26 | 0.26 | 99 | 1004.2 |
| 20260507031038 | 58 | 327 | 5.0 | 6.0 | 0.00 | 0.26 | 0.26 | 99 | 1004.1 |
| 20260507030534 | 58 | 267 | 4.0 | 8.0 | 0.02 | 0.26 | 0.26 | 99 | 1004.0 |
| 20260507030032 | 59 | 354 | 4.0 | 7.0 | 0.02 | 0.26 | 0.26 | 99 | 1004.1 |
| 20260507025529 | 59 | 273 | 7.0 | 12.0 | 0.00 | 0.25 | 0.25 | 99 | 1003.8 |
| 20260507025027 | 59 | 31 | 1.0 | 3.0 | 0.00 | 0.25 | 0.25 | 99 | 1003.8 |
| 20260507024524 | 59 | 317 | 3.0 | 6.0 | 0.00 | 0.25 | 0.25 | 99 | 1003.7 |
| 20260507024021 | 59 | 219 | 0.0 | 7.0 | 0.00 | 0.25 | 0.25 | 99 | 1003.5 |
| 20260507023516 | 59 | 174 | 0.0 | 5.0 | 0.00 | 0.25 | 0.25 | 99 | 1003.5 |
| 20260507023015 | 59 | 267 | 4.0 | 8.0 | 0.00 | 0.25 | 0.25 | 99 | 1003.8 |
| 20260507022511 | 59 | 230 | 1.0 | 9.0 | 0.00 | 0.25 | 0.25 | 99 | 1003.6 |
| 20260507022006 | 59 | 26 | 0.0 | 3.0 | 0.00 | 0.25 | 0.25 | 99 | 1003.4 |
| 20260507021503 | 59 | 92 | 4.0 | 6.0 | 0.00 | 0.25 | 0.25 | 99 | 1003.5 |
| 20260507020959 | 59 | 287 | 3.0 | 5.0 | 0.00 | 0.25 | 0.25 | 99 | 1003.4 |
| 20260507020456 | 59 | 304 | 4.0 | 9.0 | 0.00 | 0.25 | 0.25 | 99 | 1003.5 |
| 20260507015953 | 59 | 268 | 2.0 | 7.0 | 0.00 | 0.25 | 0.25 | 99 | 1003.5 |
| 20260507015452 | 59 | 254 | 3.0 | 5.0 | 0.00 | 0.25 | 0.25 | 99 | 1003.7 |
| 20260507014949 | 59 | 56 | 0.0 | 6.0 | 0.00 | 0.25 | 0.25 | 99 | 1003.5 |
| 20260507014445 | 59 | 335 | 3.0 | 9.0 | 0.00 | 0.25 | 0.25 | 99 | 1003.9 |
| 20260507013941 | 59 | 266 | 3.0 | 11.0 | 0.00 | 0.25 | 0.25 | 99 | 1003.4 |
| 20260507013438 | 59 | 243 | 3.0 | 8.0 | 0.00 | 0.25 | 0.25 | 99 | 1003.8 |
| 20260507012935 | 59 | 107 | 3.0 | 8.0 | 0.00 | 0.25 | 0.25 | 99 | 1003.8 |
| 20260507012432 | 59 | 114 | 2.0 | 3.0 | 0.00 | 0.25 | 0.25 | 99 | 1003.7 |
| 20260507011928 | 59 | 248 | 1.0 | 6.0 | 0.00 | 0.25 | 0.25 | 99 | 1003.7 |
| 20260507011426 | 59 | 85 | 2.0 | 9.0 | 0.00 | 0.25 | 0.25 | 99 | 1003.7 |
| 20260507010920 | 59 | 95 | 2.0 | 7.0 | 0.00 | 0.25 | 0.25 | 99 | 1003.7 |
| 20260507010415 | 59 | 252 | 4.0 | 5.0 | 0.00 | 0.25 | 0.25 | 99 | 1003.7 |
| 20260507005913 | 59 | 89 | 2.0 | 8.0 | 0.00 | 0.25 | 0.25 | 99 | 1003.7 |
| 20260507005410 | 59 | 260 | 5.0 | 7.0 | 0.00 | 0.25 | 0.25 | 99 | 1004.0 |
| 20260507004906 | 59 | 72 | 0.0 | 3.0 | 0.00 | 0.25 | 0.25 | 99 | 1003.8 |
| 20260507004403 | 59 | 239 | 0.0 | 5.0 | 0.00 | 0.25 | 0.25 | 99 | 1003.9 |
| 20260507003900 | 59 | 113 | 2.0 | 6.0 | 0.00 | 0.25 | 0.25 | 99 | 1003.6 |
| 20260507003355 | 59 | 67 | 0.0 | 6.0 | 0.00 | 0.25 | 0.25 | 99 | 1003.6 |
| 20260507002851 | 59 | 60 | 6.0 | 6.0 | 0.00 | 0.25 | 0.25 | 99 | 1003.5 |
| 20260507002347 | 59 | 126 | 2.0 | 5.0 | 0.00 | 0.25 | 0.25 | 99 | 1003.8 |
| 20260507001845 | 59 | 18 | 2.0 | 4.0 | 0.00 | 0.25 | 0.25 | 99 | 1003.8 |
| 20260507001341 | 59 | 156 | 0.0 | 7.0 | 0.00 | 0.25 | 0.25 | 99 | 1003.6 |
| 20260507000838 | 59 | 290 | 2.0 | 7.0 | 0.00 | 0.25 | 0.25 | 99 | 1003.7 |
| 20260507000335 | 59 | 324 | 8.0 | 9.0 | 0.00 | 0.25 | 0.25 | 99 | 1003.7 |
| 20260506235830 | 59 | 72 | 3.0 | 8.0 | 0.00 | 0.25 | 0.25 | 99 | 1003.4 |
| 20260506235327 | 59 | 64 | 3.0 | 6.0 | 0.00 | 0.25 | 0.25 | 99 | 1003.7 |
| 20260506234823 | 59 | 295 | 2.0 | 6.0 | 0.02 | 0.25 | 0.25 | 99 | 1003.5 |
| 20260506234321 | 59 | 248 | 1.0 | 5.0 | 0.02 | 0.25 | 0.25 | 99 | 1003.3 |
| 20260506233818 | 59 | 75 | 4.0 | 5.0 | 0.02 | 0.25 | 0.25 | 99 | 1003.4 |
| 20260506233313 | 59 | 105 | 1.0 | 6.0 | 0.07 | 0.25 | 0.25 | 99 | 1003.4 |
| 20260506232811 | 59 | 80 | 2.0 | 8.0 | 0.14 | 0.24 | 0.24 | 99 | 1003.5 |
| 20260506232306 | 59 | 166 | 4.0 | 7.0 | 0.14 | 0.24 | 0.24 | 99 | 1003.5 |
| 20260506231803 | 59 | 86 | 2.0 | 6.0 | 0.07 | 0.22 | 0.22 | 99 | 1003.3 |
| 20260506231301 | 59 | 100 | 4.0 | 6.0 | 0.02 | 0.21 | 0.21 | 99 | 1003.7 |
| 20260506230758 | 59 | 205 | 2.0 | 5.0 | 0.05 | 0.21 | 0.21 | 99 | 1003.5 |
| 20260506230249 | 59 | 345 | 2.0 | 6.0 | 0.07 | 0.20 | 0.20 | 99 | 1003.9 |
| 20260506225745 | 59 | 248 | 4.0 | 7.0 | 0.12 | 0.20 | 0.20 | 99 | 1003.9 |
| 20260506225242 | 59 | 73 | 2.0 | 9.0 | 0.05 | 0.19 | 0.19 | 99 | 1003.7 |
| 20260506224733 | 59 | 263 | 0.0 | 5.0 | 0.00 | 0.18 | 0.18 | 99 | 1003.8 |
| 20260506224231 | 59 | 76 | 3.0 | 7.0 | 0.02 | 0.18 | 0.18 | 99 | 1003.8 |
| 20260506223727 | 59 | 282 | 0.0 | 7.0 | 0.02 | 0.18 | 0.18 | 99 | 1003.9 |
| 20260506223222 | 59 | 25 | 1.0 | 7.0 | 0.02 | 0.18 | 0.18 | 99 | 1003.9 |
| 20260506222720 | 59 | 73 | 1.0 | 4.0 | 0.02 | 0.18 | 0.18 | 99 | 1003.9 |
| 20260506222215 | 59 | 146 | 3.0 | 6.0 | 0.02 | 0.17 | 0.17 | 99 | 1004.0 |
| 20260506221713 | 59 | 106 | 3.0 | 6.0 | 0.05 | 0.17 | 0.17 | 99 | 1003.8 |
| 20260506221211 | 59 | 87 | 4.0 | 6.0 | 0.09 | 0.17 | 0.17 | 99 | 1004.2 |
| 20260506220708 | 60 | 253 | 3.0 | 6.0 | 0.14 | 0.17 | 0.17 | 99 | 1004.1 |
| 20260506220203 | 60 | 123 | 1.0 | 4.0 | 0.09 | 0.15 | 0.15 | 99 | 1004.0 |
| 20260506215700 | 60 | 94 | 3.0 | 5.0 | 0.02 | 0.14 | 0.14 | 99 | 1004.0 |
| 20260506215155 | 60 | 61 | 3.0 | 6.0 | 0.02 | 0.14 | 0.14 | 99 | 1004.1 |
| 20260506214652 | 60 | 233 | 1.0 | 7.0 | 0.02 | 0.14 | 0.14 | 99 | 1004.0 |
| 20260506214149 | 60 | 247 | 3.0 | 6.0 | 0.00 | 0.13 | 0.13 | 99 | 1004.3 |
| 20260506213648 | 60 | 348 | 2.0 | 5.0 | 0.00 | 0.13 | 0.13 | 99 | 1004.1 |
| 20260506213145 | 60 | 289 | 3.0 | 4.0 | 0.02 | 0.13 | 0.13 | 99 | 1004.2 |
| 20260506212642 | 60 | 106 | 5.0 | 9.0 | 0.05 | 0.13 | 0.13 | 98 | 1004.3 |
| 20260506212136 | 60 | 139 | 3.0 | 7.0 | 0.02 | 0.13 | 0.13 | 98 | 1004.5 |
| 20260506211633 | 60 | 336 | 7.0 | 9.0 | 0.02 | 0.13 | 0.13 | 98 | 1004.5 |
| 20260506211129 | 60 | 89 | 0.0 | 4.0 | 0.02 | 0.12 | 0.12 | 98 | 1004.8 |
| 20260506210627 | 60 | 247 | 3.0 | 6.0 | 0.05 | 0.12 | 0.12 | 98 | 1004.7 |
| 20260506210123 | 60 | 79 | 2.0 | 6.0 | 0.05 | 0.12 | 0.12 | 97 | 1004.6 |
| 20260506205620 | 60 | 343 | 3.0 | 11.0 | 0.05 | 0.11 | 0.11 | 97 | 1004.9 |
| 20260506205114 | 60 | 40 | 2.0 | 4.0 | 0.05 | 0.11 | 0.11 | 97 | 1004.6 |
| 20260506204613 | 60 | 274 | 5.0 | 9.0 | 0.02 | 0.11 | 0.11 | 96 | 1004.7 |
| 20260506204109 | 61 | 103 | 2.0 | 11.0 | 0.02 | 0.10 | 0.10 | 97 | 1004.7 |
| 20260506203608 | 61 | 178 | 3.0 | 11.0 | 0.05 | 0.10 | 0.10 | 97 | 1004.7 |
| 20260506203104 | 61 | 75 | 2.0 | 5.0 | 0.09 | 0.10 | 0.10 | 97 | 1004.8 |
| 20260506202602 | 61 | 77 | 3.0 | 5.0 | 0.07 | 0.09 | 0.09 | 96 | 1004.8 |
| 20260506202058 | 62 | 252 | 2.0 | 3.0 | 0.05 | 0.08 | 0.08 | 96 | 1004.6 |
| 20260506201555 | 62 | 37 | 2.0 | 3.0 | 0.09 | 0.08 | 0.08 | 95 | 1004.5 |
| 20260506201052 | 62 | 43 | 0.0 | 6.0 | 0.07 | 0.07 | 0.07 | 95 | 1004.5 |
| 20260506200548 | 62 | 259 | 2.0 | 6.0 | 0.02 | 0.07 | 0.07 | 94 | 1004.9 |
| 20260506200045 | 62 | 269 | 0.0 | 5.0 | 0.00 | 0.06 | 0.06 | 94 | 1004.6 |
| 20260506195542 | 62 | 281 | 3.0 | 4.0 | 0.02 | 0.06 | 0.06 | 93 | 1004.7 |
| 20260506195038 | 62 | 59 | 2.0 | 6.0 | 0.05 | 0.06 | 0.06 | 93 | 1004.5 |
| 20260506194536 | 62 | 117 | 3.0 | 8.0 | 0.05 | 0.06 | 0.06 | 93 | 1004.5 |
| 20260506194032 | 63 | 70 | 2.0 | 6.0 | 0.05 | 0.06 | 0.06 | 93 | 1004.7 |
| 20260506193530 | 63 | 227 | 3.0 | 5.0 | 0.07 | 0.05 | 0.05 | 91 | 1004.9 |
| 20260506193027 | 63 | 267 | 2.0 | 6.0 | 0.09 | 0.05 | 0.05 | 89 | 1004.7 |
| 20260506192524 | 64 | 238 | 1.0 | 3.0 | 0.07 | 0.04 | 0.04 | 89 | 1004.7 |
| 20260506192019 | 64 | 259 | 1.0 | 4.0 | 0.05 | 0.03 | 0.03 | 88 | 1005.0 |
| 20260506191516 | 64 | 0 | 0.0 | 3.0 | 0.07 | 0.03 | 0.03 | 84 | 1004.6 |
| 20260506191012 | 65 | 257 | 5.0 | 6.0 | 0.05 | 0.02 | 0.02 | 84 | 1004.9 |
| 20260506190510 | 65 | 283 | 4.0 | 9.0 | 0.02 | 0.02 | 0.02 | 82 | 1004.9 |
| 20260506190007 | 66 | 276 | 0.0 | 6.0 | 0.05 | 0.02 | 0.02 | 81 | 1004.9 |
| 20260506185504 | 66 | 345 | 2.0 | 8.0 | 0.05 | 0.01 | 0.01 | 79 | 1004.8 |
| 20260506185000 | 67 | 337 | 0.0 | 5.0 | 0.02 | 0.01 | 0.01 | 77 | 1005.0 |
| 20260506184458 | 68 | 268 | 3.0 | 6.0 | 0.00 | 0.00 | 0.00 | 74 | 1004.8 |
| 20260506183955 | 68 | 318 | 3.0 | 9.0 | 0.02 | 0.00 | 0.00 | 72 | 1005.2 |
| 20260506183450 | 68 | 359 | 1.0 | 4.0 | 0.02 | 0.00 | 0.00 | 72 | 1005.0 |
| 20260506182947 | 69 | 106 | 4.0 | 12.0 | 0.00 | 0.00 | 0.00 | 69 | 1004.8 |
| 20260506182444 | 69 | 312 | 3.0 | 7.0 | 0.00 | 0.00 | 0.00 | 68 | 1004.8 |
| 20260506181941 | 69 | 185 | 2.0 | 7.0 | 0.00 | 0.00 | 0.00 | 69 | 1004.9 |
| 20260506181439 | 69 | 64 | 2.0 | 4.0 | 0.00 | 0.00 | 0.00 | 69 | 1004.8 |
| 20260506180936 | 69 | 205 | 2.0 | 7.0 | 0.00 | 0.00 | 0.00 | 68 | 1004.8 |
| 20260506180432 | 70 | 250 | 0.0 | 4.0 | 0.00 | 0.00 | 0.00 | 67 | 1004.8 |
| 20260506175929 | 71 | 237 | 0.0 | 6.0 | 0.00 | 0.00 | 0.00 | 62 | 1004.8 |
| 20260506175426 | 71 | 52 | 5.0 | 9.0 | 0.00 | 0.00 | 0.00 | 60 | 1004.9 |
| 20260506174923 | 72 | 143 | 2.0 | 8.0 | 0.00 | 0.00 | 0.00 | 60 | 1005.1 |
| 20260506174421 | 72 | 214 | 3.0 | 9.0 | 0.00 | 0.00 | 0.00 | 59 | 1004.9 |
| 20260506173917 | 72 | 24 | 4.0 | 10.0 | 0.00 | 0.00 | 0.00 | 58 | 1004.8 |
| 20260506173414 | 72 | 67 | 3.0 | 7.0 | 0.00 | 0.00 | 0.00 | 59 | 1004.9 |
| 20260506172912 | 72 | 125 | 3.0 | 7.0 | 0.00 | 0.00 | 0.00 | 58 | 1004.8 |
| 20260506172408 | 73 | 89 | 3.0 | 6.0 | 0.00 | 0.00 | 0.00 | 59 | 1004.8 |
| 20260506171905 | 72 | 251 | 3.0 | 9.0 | 0.00 | 0.00 | 0.00 | 58 | 1005.1 |
| 20260506171403 | 72 | 40 | 3.0 | 10.0 | 0.00 | 0.00 | 0.00 | 59 | 1005.2 |
| 20260506170900 | 72 | 280 | 4.0 | 8.0 | 0.00 | 0.00 | 0.00 | 58 | 1005.3 |
| 20260506170355 | 72 | 245 | 6.0 | 13.0 | 0.00 | 0.00 | 0.00 | 60 | 1005.4 |
| 20260506165850 | 73 | 48 | 3.0 | 3.0 | 0.00 | 0.00 | 0.00 | 59 | 1005.3 |
| 20260506165347 | 72 | 325 | 3.0 | 9.0 | 0.00 | 0.00 | 0.00 | 59 | 1005.3 |
| 20260506164843 | 72 | 297 | 5.0 | 8.0 | 0.00 | 0.00 | 0.00 | 59 | 1005.5 |
| 20260506164340 | 72 | 302 | 2.0 | 10.0 | 0.00 | 0.00 | 0.00 | 60 | 1005.6 |
| 20260506163838 | 72 | 92 | 0.0 | 5.0 | 0.00 | 0.00 | 0.00 | 60 | 1005.6 |
| 20260506163332 | 72 | 47 | 3.0 | 5.0 | 0.00 | 0.00 | 0.00 | 60 | 1005.9 |
| 20260506162827 | 72 | 10 | 2.0 | 9.0 | 0.00 | 0.00 | 0.00 | 60 | 1005.8 |
| 20260506162325 | 72 | 326 | 2.0 | 13.0 | 0.00 | 0.00 | 0.00 | 60 | 1005.8 |
| 20260506161817 | 72 | 278 | 2.0 | 6.0 | 0.00 | 0.00 | 0.00 | 61 | 1005.8 |
| 20260506161314 | 72 | 239 | 3.0 | 5.0 | 0.00 | 0.00 | 0.00 | 63 | 1006.2 |
| 20260506160812 | 72 | 310 | 2.0 | 5.0 | 0.00 | 0.00 | 0.00 | 61 | 1006.0 |
| 20260506160308 | 71 | 323 | 1.0 | 6.0 | 0.00 | 0.00 | 0.00 | 63 | 1006.3 |
| 20260506155807 | 71 | 260 | 4.0 | 8.0 | 0.00 | 0.00 | 0.00 | 62 | 1006.2 |
| 20260506155306 | 71 | 10 | 2.0 | 9.0 | 0.00 | 0.00 | 0.00 | 63 | 1006.5 |
| 20260506153416 | 71 | 244 | 7.0 | 8.0 | 0.00 | 0.00 | 0.00 | 63 | 1006.8 |
| 20260506152914 | 70 | 268 | 5.0 | 7.0 | 0.00 | 0.00 | 0.00 | 63 | 1006.8 |
| 20260506152410 | 70 | 7 | 4.0 | 15.0 | 0.00 | 0.00 | 0.00 | 63 | 1006.7 |
| 20260506151909 | 71 | 277 | 4.0 | 11.0 | 0.00 | 0.00 | 0.00 | 63 | 1007.1 |
| 20260506151405 | 71 | 341 | 3.0 | 9.0 | 0.00 | 0.00 | 0.00 | 63 | 1007.1 |
| 20260506150903 | 70 | 280 | 3.0 | 13.0 | 0.00 | 0.00 | 0.00 | 66 | 1006.8 |
| 20260506150359 | 71 | 253 | 2.0 | 6.0 | 0.00 | 0.00 | 0.00 | 65 | 1006.7 |
| 20260506145856 | 71 | 278 | 0.0 | 6.0 | 0.00 | 0.00 | 0.00 | 66 | 1007.1 |
| 20260506145352 | 70 | 249 | 3.0 | 6.0 | 0.00 | 0.00 | 0.00 | 67 | 1007.1 |
| 20260506144850 | 70 | 117 | 4.0 | 7.0 | 0.00 | 0.00 | 0.00 | 67 | 1007.1 |
| 20260506144346 | 69 | 273 | 5.0 | 6.0 | 0.00 | 0.00 | 0.00 | 67 | 1006.8 |
| 20260506143845 | 69 | 63 | 2.0 | 7.0 | 0.00 | 0.00 | 0.00 | 68 | 1006.8 |
| 20260506143341 | 69 | 340 | 1.0 | 5.0 | 0.00 | 0.00 | 0.00 | 69 | 1007.1 |
| 20260506142839 | 69 | 254 | 8.0 | 14.0 | 0.00 | 0.00 | 0.00 | 69 | 1006.9 |
| 20260506142337 | 69 | 143 | 3.0 | 10.0 | 0.00 | 0.00 | 0.00 | 68 | 1006.8 |
| 20260506141835 | 70 | 257 | 3.0 | 9.0 | 0.00 | 0.00 | 0.00 | 69 | 1006.6 |
| 20260506141333 | 69 | 75 | 3.0 | 9.0 | 0.00 | 0.00 | 0.00 | 70 | 1006.7 |
| 20260506140831 | 68 | 273 | 1.0 | 6.0 | 0.00 | 0.00 | 0.00 | 73 | 1006.8 |
| 20260506140327 | 67 | 74 | 3.0 | 9.0 | 0.00 | 0.00 | 0.00 | 72 | 1006.8 |
| 20260506135824 | 67 | 256 | 3.0 | 7.0 | 0.00 | 0.00 | 0.00 | 73 | 1007.0 |
| 20260506135321 | 67 | 259 | 3.0 | 8.0 | 0.00 | 0.00 | 0.00 | 73 | 1007.2 |
| 20260506134817 | 66 | 100 | 2.0 | 5.0 | 0.00 | 0.00 | 0.00 | 74 | 1007.2 |
| 20260506134314 | 66 | 264 | 3.0 | 7.0 | 0.00 | 0.00 | 0.00 | 74 | 1007.2 |
| 20260506133811 | 66 | 345 | 3.0 | 7.0 | 0.00 | 0.00 | 0.00 | 74 | 1007.3 |
| 20260506133308 | 66 | 230 | 3.0 | 9.0 | 0.00 | 0.00 | 0.00 | 74 | 1007.5 |
| 20260506132804 | 66 | 52 | 4.0 | 6.0 | 0.00 | 0.00 | 0.00 | 75 | 1007.4 |
| 20260506132302 | 65 | 258 | 0.0 | 8.0 | 0.00 | 0.00 | 0.00 | 75 | 1007.5 |
| 20260506131800 | 65 | 329 | 4.0 | 8.0 | 0.00 | 0.00 | 0.00 | 75 | 1007.5 |
| 20260506131255 | 65 | 86 | 3.0 | 5.0 | 0.00 | 0.00 | 0.00 | 76 | 1007.4 |
| 20260506130752 | 65 | 83 | 4.0 | 12.0 | 0.00 | 0.00 | 0.00 | 76 | 1007.2 |
| 20260506130249 | 65 | 79 | 4.0 | 7.0 | 0.00 | 0.00 | 0.00 | 76 | 1007.5 |
| 20260506125747 | 65 | 251 | 5.0 | 8.0 | 0.00 | 0.00 | 0.00 | 76 | 1007.5 |
| 20260506125245 | 65 | 89 | 3.0 | 11.0 | 0.00 | 0.00 | 0.00 | 76 | 1007.6 |
| 20260506124743 | 65 | 309 | 3.0 | 6.0 | 0.00 | 0.00 | 0.00 | 76 | 1007.3 |
| 20260506124240 | 65 | 230 | 5.0 | 6.0 | 0.00 | 0.00 | 0.00 | 77 | 1007.0 |
| 20260506123738 | 65 | 84 | 2.0 | 6.0 | 0.00 | 0.00 | 0.00 | 77 | 1007.3 |
| 20260506123237 | 64 | 34 | 2.0 | 7.0 | 0.00 | 0.00 | 0.00 | 76 | 1007.3 |
| 20260506122732 | 64 | 119 | 5.0 | 10.0 | 0.00 | 0.00 | 0.00 | 76 | 1007.5 |
| 20260506122230 | 64 | 54 | 2.0 | 7.0 | 0.00 | 0.00 | 0.00 | 77 | 1007.5 |
| 20260506121728 | 65 | 286 | 4.0 | 10.0 | 0.00 | 0.00 | 0.00 | 76 | 1007.5 |
| 20260506121225 | 65 | 285 | 3.0 | 7.0 | 0.00 | 0.00 | 0.00 | 75 | 1007.5 |
| 20260506120722 | 64 | 127 | 5.0 | 11.0 | 0.00 | 0.00 | 0.00 | 78 | 1007.5 |
| 20260506120220 | 63 | 78 | 2.0 | 9.0 | 0.00 | 0.00 | 0.00 | 79 | 1007.5 |
| 20260506115717 | 63 | 154 | 2.0 | 5.0 | 0.00 | 0.00 | 0.00 | 78 | 1007.6 |
| 20260506115215 | 63 | 42 | 3.0 | 6.0 | 0.00 | 0.00 | 0.00 | 79 | 1007.7 |
| 20260506114713 | 63 | 11 | 1.0 | 7.0 | 0.00 | 0.00 | 0.00 | 79 | 1007.8 |
| 20260506114210 | 63 | 281 | 3.0 | 9.0 | 0.00 | 0.00 | 0.00 | 79 | 1007.7 |
| 20260506113708 | 63 | 111 | 3.0 | 4.0 | 0.00 | 0.00 | 0.00 | 79 | 1007.9 |
| 20260506113205 | 62 | 113 | 4.0 | 12.0 | 0.00 | 0.00 | 0.00 | 79 | 1007.9 |
| 20260506112702 | 62 | 81 | 3.0 | 7.0 | 0.00 | 0.00 | 0.00 | 80 | 1007.9 |
| 20260506112200 | 62 | 353 | 0.0 | 3.0 | 0.00 | 0.00 | 0.00 | 80 | 1008.0 |
| 20260506111657 | 62 | 184 | 2.0 | 7.0 | 0.00 | 0.00 | 0.00 | 80 | 1007.8 |
| 20260506111154 | 62 | 244 | 4.0 | 7.0 | 0.00 | 0.00 | 0.00 | 80 | 1007.9 |
| 20260506110651 | 62 | 349 | 2.0 | 4.0 | 0.00 | 0.00 | 0.00 | 80 | 1007.9 |
| 20260506110149 | 61 | 307 | 2.0 | 7.0 | 0.00 | 0.00 | 0.00 | 81 | 1008.0 |
| 20260506105645 | 61 | 16 | 1.0 | 7.0 | 0.00 | 0.00 | 0.00 | 81 | 1008.0 |
| 20260506105142 | 61 | 50 | 2.0 | 4.0 | 0.00 | 0.00 | 0.00 | 81 | 1007.8 |
| 20260506104641 | 61 | 212 | 2.0 | 4.0 | 0.00 | 0.00 | 0.00 | 81 | 1007.9 |
| 20260506104138 | 61 | 319 | 0.0 | 4.0 | 0.00 | 0.00 | 0.00 | 81 | 1007.8 |
| 20260506103635 | 61 | 222 | 2.0 | 8.0 | 0.00 | 0.00 | 0.00 | 81 | 1007.9 |
| 20260506103132 | 61 | 116 | 3.0 | 5.0 | 0.00 | 0.00 | 0.00 | 81 | 1007.7 |
| 20260506102630 | 61 | 80 | 3.0 | 5.0 | 0.00 | 0.00 | 0.00 | 81 | 1007.8 |
| 20260506102127 | 61 | 283 | 2.0 | 4.0 | 0.00 | 0.00 | 0.00 | 81 | 1007.8 |
| 20260506101623 | 60 | 250 | 5.0 | 6.0 | 0.00 | 0.00 | 0.00 | 81 | 1007.6 |
| 20260506101120 | 60 | 244 | 3.0 | 5.0 | 0.00 | 0.00 | 0.00 | 81 | 1008.0 |
| 20260506100619 | 60 | 233 | 1.0 | 7.0 | 0.00 | 0.00 | 0.00 | 81 | 1007.7 |
| 20260506100116 | 60 | 187 | 2.0 | 5.0 | 0.00 | 0.00 | 0.00 | 81 | 1007.7 |
| 20260506095615 | 60 | 357 | 0.0 | 7.0 | 0.00 | 0.00 | 0.00 | 81 | 1007.6 |
| 20260506095111 | 60 | 63 | 2.0 | 4.0 | 0.00 | 0.00 | 0.00 | 81 | 1007.7 |
| 20260506094609 | 60 | 46 | 3.0 | 6.0 | 0.00 | 0.00 | 0.00 | 81 | 1007.6 |
| 20260506094106 | 60 | 132 | 0.0 | 3.0 | 0.00 | 0.00 | 0.00 | 81 | 1007.4 |
| 20260506093605 | 60 | 30 | 2.0 | 3.0 | 0.00 | 0.00 | 0.00 | 80 | 1008.0 |
| 20260506093102 | 61 | 255 | 0.0 | 6.0 | 0.00 | 0.00 | 0.00 | 80 | 1008.0 |
| 20260506092559 | 61 | 33 | 1.0 | 5.0 | 0.00 | 0.00 | 0.00 | 79 | 1007.7 |
| 20260506092056 | 61 | 96 | 2.0 | 6.0 | 0.00 | 0.00 | 0.00 | 80 | 1007.8 |
| 20260506091555 | 61 | 74 | 4.0 | 6.0 | 0.00 | 0.00 | 0.00 | 79 | 1007.7 |
| 20260506091052 | 61 | 247 | 3.0 | 4.0 | 0.00 | 0.00 | 0.00 | 80 | 1007.8 |
| 20260506090549 | 61 | 55 | 2.0 | 4.0 | 0.00 | 0.00 | 0.00 | 79 | 1007.8 |
| 20260506090045 | 61 | 18 | 1.0 | 5.0 | 0.00 | 0.00 | 0.00 | 79 | 1007.7 |
| 20260506085542 | 61 | 68 | 2.0 | 5.0 | 0.00 | 0.00 | 0.00 | 78 | 1007.6 |
| 20260506085038 | 61 | 328 | 3.0 | 6.0 | 0.00 | 0.00 | 0.00 | 78 | 1007.7 |
| 20260506084536 | 62 | 92 | 3.0 | 12.0 | 0.00 | 0.00 | 0.00 | 77 | 1007.9 |
| 20260506084032 | 61 | 304 | 2.0 | 5.0 | 0.00 | 0.00 | 0.00 | 77 | 1007.8 |
| 20260506083529 | 61 | 50 | 3.0 | 5.0 | 0.00 | 0.00 | 0.00 | 77 | 1007.8 |
| 20260506083027 | 62 | 54 | 3.0 | 6.0 | 0.00 | 0.00 | 0.00 | 77 | 1007.7 |
| 20260506082523 | 62 | 51 | 1.0 | 6.0 | 0.00 | 0.00 | 0.00 | 77 | 1007.8 |
| 20260506082019 | 62 | 318 | 2.0 | 6.0 | 0.00 | 0.00 | 0.00 | 76 | 1007.7 |
| 20260506081517 | 62 | 27 | 2.0 | 7.0 | 0.00 | 0.00 | 0.00 | 76 | 1007.6 |
| 20260506081015 | 62 | 272 | 3.0 | 4.0 | 0.00 | 0.00 | 0.00 | 75 | 1007.7 |
| 20260506080512 | 62 | 52 | 1.0 | 4.0 | 0.00 | 0.00 | 0.00 | 75 | 1007.6 |
| 20260506073455 | 63 | 233 | 1.0 | 11.0 | 0.00 | 0.00 | 0.00 | 73 | 1007.4 |
| 20260506072952 | 63 | 42 | 2.0 | 5.0 | 0.00 | 0.00 | 0.00 | 72 | 1007.4 |
| 20260506072449 | 63 | 24 | 2.0 | 6.0 | 0.00 | 0.00 | 0.00 | 72 | 1007.4 |
| 20260506071947 | 63 | 70 | 2.0 | 5.0 | 0.00 | 0.00 | 0.00 | 72 | 1007.3 |
| 20260506071445 | 63 | 256 | 4.0 | 6.0 | 0.00 | 0.00 | 0.00 | 72 | 1007.5 |
| 20260506070942 | 63 | 34 | 3.0 | 6.0 | 0.00 | 0.00 | 0.00 | 71 | 1007.3 |
| 20260506070439 | 63 | 87 | 2.0 | 6.0 | 0.00 | 0.00 | 0.00 | 72 | 1007.2 |
| 20260506062416 | 63 | 39 | 2.0 | 8.0 | 0.00 | 0.00 | 0.00 | 69 | 1007.1 |
| 20260506061912 | 63 | 0 | 2.0 | 6.0 | 0.00 | 0.00 | 0.00 | 69 | 1007.2 |
| 20260506061409 | 63 | 36 | 3.0 | 5.0 | 0.00 | 0.00 | 0.00 | 68 | 1007.0 |
| 20260506060907 | 63 | 75 | 2.0 | 7.0 | 0.00 | 0.00 | 0.00 | 68 | 1006.8 |